Location: St. Louis
(38.6270°N, 90.1994°W)
Time: 00:43:14
(UTC-06:00)

Vanguard 2 - Pass Details

Date: 06 December 2021
Orbit: 553 x 2936 km, 32.9° (Epoch: 16 January)

Event Time Altitude Azimuth Distance (km) Brightness Sun altitude
Rises 16:46:02 0° 269° (W) 3,439 12.2 -2.0°
Reaches altitude 10° 16:48:22 10° 260° (W) 2,726 12.0 -2.4°
Maximum altitude 16:54:23 36° 196° (SSW) 1,984 10.1 -3.4°
Drops below altitude 10° 17:03:46 10° 135° (SE) 4,284 11.1 -5.1°
Sets 17:08:27 0° 129° (SE) 5,692 11.7 -5.9°
